TimeCDT,TemperatureF,Dew PointF,Humidity,Sea Level PressureIn,VisibilityMPH,Wind Direction,Wind SpeedMPH,Gust SpeedMPH,PrecipitationIn,Events,Conditions,WindDirDegrees,DateUTC
12:15 AM,68.4,52.9,58,30.15,10.0,Calm,Calm,-,N/A,,Clear,0,2013-07-02 05:15:00
12:35 AM,67.5,53.2,60,30.15,10.0,ENE,3.5,-,N/A,,Clear,70,2013-07-02 05:35:00
12:55 AM,66.7,52.9,61,30.15,10.0,East,4.6,-,N/A,,Clear,90,2013-07-02 05:55:00
1:15 AM,66.4,52.3,61,30.15,10.0,East,4.6,-,N/A,,Clear,100,2013-07-02 06:15:00
1:35 AM,65.7,52.0,61,30.15,10.0,ESE,3.5,-,N/A,,Clear,110,2013-07-02 06:35:00
1:55 AM,65.5,51.8,61,30.16,10.0,Calm,Calm,-,N/A,,Clear,0,2013-07-02 06:55:00
2:15 AM,66.2,51.3,59,30.15,10.0,Calm,Calm,-,N/A,,Clear,0,2013-07-02 07:15:00
2:35 AM,65.7,51.8,61,30.15,10.0,ESE,3.5,-,N/A,,Scattered Clouds,110,2013-07-02 07:35:00
2:55 AM,66.0,51.1,59,30.15,10.0,Calm,Calm,-,N/A,,Mostly Cloudy,0,2013-07-02 07:55:00
3:15 AM,65.5,51.3,60,30.15,10.0,Calm,Calm,-,N/A,,Scattered Clouds,0,2013-07-02 08:15:00
3:35 AM,61.0,53.6,77,30.15,10.0,Calm,Calm,-,N/A,,Clear,0,2013-07-02 08:35:00
3:55 AM,62.2,53.4,73,30.15,10.0,Calm,Calm,-,N/A,,Clear,0,2013-07-02 08:55:00
4:15 AM,60.4,53.6,78,30.15,10.0,NW,3.5,-,N/A,,Clear,310,2013-07-02 09:15:00
4:35 AM,60.8,54.3,79,30.15,10.0,Calm,Calm,-,N/A,,Scattered Clouds,0,2013-07-02 09:35:00
4:55 AM,61.2,54.7,79,30.15,10.0,Calm,Calm,-,N/A,,Scattered Clouds,0,2013-07-02 09:55:00
5:15 AM,60.3,54.7,82,30.16,10.0,WNW,3.5,-,N/A,,Clear,290,2013-07-02 10:15:00
5:35 AM,58.8,54.7,86,30.16,10.0,Calm,Calm,-,N/A,,Clear,0,2013-07-02 10:35:00
5:55 AM,59.9,54.5,82,30.16,10.0,Calm,Calm,-,N/A,,Scattered Clouds,0,2013-07-02 10:55:00
6:15 AM,59.5,54.7,84,30.16,10.0,NW,3.5,-,N/A,,Clear,310,2013-07-02 11:15:00
6:35 AM,59.9,55.0,84,30.17,10.0,Calm,Calm,-,N/A,,Scattered Clouds,0,2013-07-02 11:35:00
6:55 AM,61.2,56.3,84,30.17,10.0,Calm,Calm,-,N/A,,Mostly Cloudy,0,2013-07-02 11:55:00
7:15 AM,62.6,58.8,87,30.17,10.0,Calm,Calm,-,N/A,,Overcast,0,2013-07-02 12:15:00
7:35 AM,65.7,59.0,79,30.17,10.0,Calm,Calm,-,N/A,,Mostly Cloudy,0,2013-07-02 12:35:00
7:55 AM,67.1,58.6,74,30.17,10.0,Calm,Calm,-,N/A,,Mostly Cloudy,0,2013-07-02 12:55:00
8:15 AM,69.3,58.6,69,30.18,10.0,Calm,Calm,-,N/A,,Overcast,0,2013-07-02 13:15:00
8:35 AM,70.0,56.8,63,30.17,10.0,Calm,Calm,-,N/A,,Scattered Clouds,0,2013-07-02 13:35:00
9:15 AM,72.0,58.3,62,30.17,10.0,Calm,Calm,-,N/A,,Scattered Clouds,0,2013-07-02 14:15:00
9:35 AM,72.5,57.7,60,30.17,10.0,Calm,Calm,-,N/A,,Clear,0,2013-07-02 14:35:00
9:55 AM,74.1,58.5,58,30.17,10.0,Calm,Calm,-,N/A,,Scattered Clouds,0,2013-07-02 14:55:00
10:15 AM,74.8,55.2,50,30.17,10.0,Calm,Calm,-,N/A,,Clear,0,2013-07-02 15:15:00
10:35 AM,77.0,56.8,50,30.17,10.0,NNW,4.6,-,N/A,,Scattered Clouds,330,2013-07-02 15:35:00
10:55 AM,76.1,55.2,48,30.17,10.0,NW,5.8,-,N/A,,Mostly Cloudy,320,2013-07-02 15:55:00
11:15 AM,76.3,55.2,48,30.17,10.0,NW,10.4,-,N/A,,Mostly Cloudy,310,2013-07-02 16:15:00
11:35 AM,76.1,54.0,46,30.17,10.0,NW,5.8,-,N/A,,Mostly Cloudy,320,2013-07-02 16:35:00
11:55 AM,76.8,51.8,42,30.17,10.0,West,4.6,-,N/A,,Mostly Cloudy,270,2013-07-02 16:55:00
12:15 PM,77.7,50.2,38,30.16,10.0,Calm,Calm,-,N/A,,Mostly Cloudy,0,2013-07-02 17:15:00
12:35 PM,78.1,49.8,37,30.16,10.0,Calm,Calm,-,N/A,,Scattered Clouds,0,2013-07-02 17:35:00
12:55 PM,79.3,50.0,36,30.16,10.0,NW,3.5,-,N/A,,Scattered Clouds,310,2013-07-02 17:55:00
1:15 PM,80.1,50.7,36,30.15,10.0,Calm,Calm,-,N/A,,Clear,0,2013-07-02 18:15:00
1:35 PM,80.1,51.1,36,30.15,10.0,NW,3.5,-,N/A,,Clear,320,2013-07-02 18:35:00
1:55 PM,80.4,52.9,38,30.14,10.0,Calm,Calm,-,N/A,,Clear,0,2013-07-02 18:55:00
2:15 PM,80.4,52.7,38,30.14,10.0,North,4.6,-,N/A,,Scattered Clouds,10,2013-07-02 19:15:00
2:35 PM,81.1,52.7,37,30.14,10.0,Calm,Calm,-,N/A,,Scattered Clouds,0,2013-07-02 19:35:00
2:55 PM,80.6,51.8,37,30.13,10.0,WSW,4.6,-,N/A,,Clear,240,2013-07-02 19:55:00
3:15 PM,81.3,51.6,36,30.12,10.0,Calm,Calm,-,N/A,,Clear,0,2013-07-02 20:15:00
3:35 PM,82.0,52.9,36,30.11,10.0,NNW,4.6,-,N/A,,Clear,330,2013-07-02 20:35:00
3:55 PM,81.1,51.8,36,30.11,10.0,North,3.5,-,N/A,,Clear,360,2013-07-02 20:55:00
4:15 PM,80.4,53.8,40,30.11,10.0,Calm,Calm,-,N/A,,Clear,0,2013-07-02 21:15:00
4:35 PM,79.2,55.0,43,30.10,10.0,Calm,Calm,-,N/A,,Clear,0,2013-07-02 21:35:00
4:55 PM,80.1,52.3,38,30.09,10.0,Calm,Calm,-,N/A,Thunderstorm,Clear,0,2013-07-02 21:55:00
5:35 PM,80.2,53.1,39,30.10,10.0,Calm,Calm,-,N/A,,Clear,0,2013-07-02 22:35:00
5:55 PM,78.8,55.6,45,30.09,10.0,Calm,Calm,-,N/A,,Clear,0,2013-07-02 22:55:00
6:15 PM,76.8,59.7,55,30.08,10.0,Calm,Calm,-,N/A,Thunderstorm,Clear,0,2013-07-02 23:15:00
6:35 PM,78.6,56.8,47,30.09,10.0,Calm,Calm,-,N/A,,Clear,0,2013-07-02 23:35:00
6:55 PM,74.8,57.2,54,30.10,10.0,NW,4.6,-,N/A,,Clear,310,2013-07-02 23:55:00
7:15 PM,73.2,56.8,56,30.08,10.0,WNW,3.5,-,N/A,,Clear,300,2013-07-03 00:15:00
7:35 PM,72.5,57.4,59,30.06,10.0,West,3.5,-,N/A,Thunderstorm,Clear,280,2013-07-03 00:35:00
7:55 PM,72.5,57.4,59,30.07,10.0,WNW,3.5,-,N/A,,Clear,290,2013-07-03 00:55:00
8:15 PM,71.8,57.4,60,30.07,10.0,WNW,3.5,-,N/A,,Clear,290,2013-07-03 01:15:00
8:35 PM,70.9,58.1,64,30.08,10.0,NW,3.5,-,N/A,,Clear,320,2013-07-03 01:35:00
8:55 PM,70.2,59.4,69,30.08,10.0,NNE,3.5,-,N/A,,Scattered Clouds,20,2013-07-03 01:55:00
9:15 PM,69.3,59.2,70,30.06,10.0,Calm,Calm,-,N/A,Rain,Light Rain,0,2013-07-03 02:15:00
9:35 PM,67.6,59.0,74,30.07,10.0,Calm,Calm,-,N/A,,Scattered Clouds,0,2013-07-03 02:35:00
10:15 PM,66.4,58.8,77,30.08,10.0,Calm,Calm,-,N/A,,Clear,0,2013-07-03 03:15:00
10:35 PM,64.8,58.8,81,30.08,10.0,Calm,Calm,-,N/A,,Clear,0,2013-07-03 03:35:00
10:55 PM,67.1,58.6,74,30.08,10.0,Calm,Calm,-,N/A,,Clear,0,2013-07-03 03:55:00
11:15 PM,67.3,57.9,72,30.07,10.0,Calm,Calm,-,N/A,,Clear,0,2013-07-03 04:15:00
11:35 PM,66.4,58.3,75,30.08,10.0,WNW,3.5,-,N/A,,Clear,290,2013-07-03 04:35:00
11:55 PM,63.7,58.3,83,30.08,10.0,West,6.9,-,N/A,,Clear,280,2013-07-03 04:55:00